LDPE-3A

Last updated on Sun Apr 12 2026 00:02:56 GMT+0000 (Coordinated Universal Time)

1 55264U 23008B 26101.15947613 -.00000295 00000+0 00000+0 0 9996 2 55264 2.1722 82.4587 0006658 141.0857 174.3203 1.00092440 11140
UTC large
Height (km)
Speed (km/s)
/
Latitude / Longitude
Inclination (degrees)
Orbital Period (minutes)
Azimuth
Elevation
Range (km)
Doppler Factor

Next 0 passes for location: London (51.5072 / 0.1276)

Sorry there are no passes over London.